{"data":{"norad_id":56347,"epoch":"2026-09-20T22:10:43.667328Z","epoch_age_seconds":71909,"freshness":"FRESH","line1":"1 56347U 23058AG  26263.92411652  .00000207  00000+0  87476-5 0  9997","line2":"2 56347  97.2845 260.7263 0001591  93.6676 266.4748 15.33435380187706","mean_motion":15.3343538,"eccentricity":0.0001591,"inclination_deg":97.2845,"raan_deg":260.7263,"arg_perigee_deg":93.6676,"mean_anomaly_deg":266.4748,"bstar":8.7476e-6,"rev_number":18770,"period_min":93.90679377699,"perigee_km":464.48296290992,"apogee_km":466.66063104912,"semimajor_km":6843.7087969795,"source":"CELESTRAK","updated_at":"2026-09-21T09:00:33.406632Z"}}